TimeCST,TemperatureF,Dew PointF,Humidity,Sea Level PressureIn,VisibilityMPH,Wind Direction,Wind SpeedMPH,Gust SpeedMPH,PrecipitationIn,Events,Conditions,WindDirDegrees,DateUTC
12:17 AM,6.1,1.9,83,30.06,4.0,NNW,27.6,47.2,0.00,,Overcast,330,2013-12-29 06:17:00
12:52 AM,6.1,1.0,80,30.13,5.0,NNW,32.2,41.4,0.00,,Haze,330,2013-12-29 06:52:00
1:32 AM,3.9,-0.9,80,30.10,10.0,NNW,32.2,41.4,N/A,,Overcast,330,2013-12-29 07:32:00
1:52 AM,3.9,-0.9,80,30.17,9.0,NNW,32.2,40.3,N/A,,Overcast,330,2013-12-29 07:52:00
2:52 AM,1.9,-4.0,76,30.19,10.0,NNW,29.9,40.3,N/A,,Overcast,330,2013-12-29 08:52:00
3:52 AM,-0.9,-6.0,79,30.21,9.0,NNW,28.8,38.0,N/A,,Overcast,330,2013-12-29 09:52:00
4:49 AM,-4.0,-9.4,78,30.17,10.0,NNW,29.9,39.1,N/A,,Overcast,330,2013-12-29 10:49:00
4:52 AM,-4.0,-9.0,79,30.25,10.0,NNW,33.4,39.1,N/A,,Overcast,330,2013-12-29 10:52:00
5:31 AM,-5.1,-11.0,76,30.20,10.0,NNW,29.9,40.3,N/A,,Scattered Clouds,330,2013-12-29 11:31:00
5:52 AM,-6.0,-11.9,75,30.30,10.0,NNW,27.6,38.0,N/A,,Clear,330,2013-12-29 11:52:00
6:52 AM,-7.1,-14.1,72,30.33,10.0,NNW,28.8,39.1,N/A,,Clear,340,2013-12-29 12:52:00
7:52 AM,-8.0,-16.1,68,30.35,10.0,NNW,17.3,-,N/A,,Clear,340,2013-12-29 13:52:00
8:52 AM,-7.1,-17.0,62,30.40,10.0,NNW,25.3,-,N/A,,Clear,330,2013-12-29 14:52:00
9:52 AM,-6.0,-17.0,59,30.43,10.0,NNW,25.3,-,N/A,,Clear,330,2013-12-29 15:52:00
10:52 AM,-2.9,-14.1,59,30.43,10.0,NNW,24.2,-,N/A,,Clear,340,2013-12-29 16:52:00
11:52 AM,-0.9,-13.0,57,30.42,10.0,NNW,23.0,-,N/A,,Clear,330,2013-12-29 17:52:00
12:52 PM,-0.0,-13.0,54,30.39,10.0,NNW,18.4,25.3,N/A,,Clear,340,2013-12-29 18:52:00
1:52 PM,1.0,-13.0,52,30.38,10.0,NNW,16.1,26.5,N/A,,Clear,330,2013-12-29 19:52:00
2:52 PM,1.0,-13.0,52,30.38,10.0,NNW,18.4,26.5,N/A,,Clear,330,2013-12-29 20:52:00
3:52 PM,-0.0,-14.1,52,30.40,10.0,NW,18.4,-,N/A,,Clear,320,2013-12-29 21:52:00
4:52 PM,-2.9,-16.1,54,30.38,10.0,NNW,13.8,-,N/A,,Clear,330,2013-12-29 22:52:00
5:52 PM,-5.1,-15.0,62,30.39,10.0,NW,10.4,-,N/A,,Clear,320,2013-12-29 23:52:00
6:52 PM,-6.0,-15.0,65,30.39,10.0,WNW,5.8,-,N/A,,Clear,290,2013-12-30 00:52:00
7:52 PM,-7.1,-15.0,68,30.38,10.0,NW,4.6,-,N/A,,Clear,310,2013-12-30 01:52:00
8:52 PM,-8.0,-14.1,75,30.38,10.0,Calm,Calm,-,N/A,,Clear,0,2013-12-30 02:52:00
9:52 PM,-8.0,-15.0,71,30.37,10.0,West,3.5,-,N/A,,Clear,270,2013-12-30 03:52:00
10:52 PM,-9.0,-15.0,75,30.37,10.0,WSW,4.6,-,N/A,,Clear,240,2013-12-30 04:52:00
11:52 PM,-8.0,-14.1,75,30.35,10.0,South,3.5,-,N/A,,Clear,170,2013-12-30 05:52:00